Weather History for Ft Lauderdale, FL

Change the Weather History Date:

Wednesday, January 16, 2013

  Actual Average Record
Temperature  
Mean Temperature 74 °F 69 °F  
Max Temperature 80 °F 76 °F 85 °F (1954)
Min Temperature 67 °F 61 °F 36 °F (1921)
Degree Days  
Heating Degree Days 0 2  
Month to date heating degree days 0 32  
Since 1 July heating degree days 22 64  
Cooling Degree Days 9 5  
Month to date cooling degree days 166 89  
Year to date cooling degree days 166 89  
Growing Degree Days 24 (Base 50)    
Moisture  
Dew Point 67 °F    
Average Humidity 77    
Maximum Humidity 87    
Minimum Humidity 67    
Precipitation  
Precipitation 0.29 in 0.07 in 3.81 in (1922)
Month to date precipitation 0.58 1.30  
Year to date precipitation 0.58 1.30  
Snow  
Snow 0.00 in - - ()
Month to date snowfall 0.0  
Since 1 July snowfall 0.0  
Snow Depth 0.00 in    
Sea Level Pressure  
Sea Level Pressure 30.06 in    
Wind  
Wind Speed 7 mph (SE)    
Max Wind Speed 18 mph    
Max Gust Speed 23 mph    
Visibility 9 miles    
Events Rain    
T = Trace of Precipitation, MM = Missing Value Source: NWS Daily Summary

Daily Weather History Graph

Daily Weather History Graph

Search for Another Location

Airport:

Trip Planner

Search our weather history database for the weather conditions in past years. The results will help you decide how hot, cold, wet, or windy it might be!

Date:

Astronomy

Jan. 16, 2013 Rise Set
Actual Time 7:09 AM EST 5:51 PM EST
Civil Twilight 6:44 AM EST 6:16 PM EST
Nautical Twilight 6:16 AM EST 6:44 PM EST
Astronomical Twilight 5:48 AM EST 7:12 PM EST
Moon 10:20 AM EST (1/16) 11:02 PM EST (1/16)
Length of Visible Light 11h 32m
Length of Day
10h 42m
Waxing Crescent, 28% of the Moon is Illuminated
Jan 16
Waxing Crescent
Jan 18
First Quarter
Jan 26
Full
Feb 3
Last Quarter
Feb 10
New

Hourly Weather History & Observations

Time (EST) Temp. Heat Index Dew Point Humidity Pressure Visibility Wind Dir Wind Speed Gust Speed Precip Events Conditions
12:53 AM 72.0 °F - 62.1 °F 71% 30.05 in 10.0 mi ESE 6.9 mph - N/A   Clear
1:53 AM 72.0 °F - 62.1 °F 71% 30.05 in 10.0 mi SE 4.6 mph - N/A   Partly Cloudy
2:53 AM 71.1 °F - 63.0 °F 75% 30.05 in 10.0 mi Calm Calm - N/A   Partly Cloudy
3:53 AM 68.0 °F - 63.0 °F 84% 30.05 in 10.0 mi Calm Calm - N/A   Scattered Clouds
4:53 AM 69.1 °F - 64.0 °F 84% 30.05 in 10.0 mi Calm Calm - N/A   Mostly Cloudy
5:53 AM 69.1 °F - 63.0 °F 81% 30.05 in 10.0 mi Calm Calm - N/A   Partly Cloudy
6:53 AM 70.0 °F - 64.0 °F 81% 30.07 in 10.0 mi SE 4.6 mph - N/A   Partly Cloudy
7:53 AM 73.0 °F - 66.0 °F 79% 30.09 in 10.0 mi SE 6.9 mph - N/A   Mostly Cloudy
8:53 AM 75.9 °F - 66.9 °F 74% 30.09 in 10.0 mi SE 11.5 mph - N/A   Mostly Cloudy
9:53 AM 78.1 °F - 66.0 °F 66% 30.11 in 10.0 mi SSE 12.7 mph - N/A   Partly Cloudy
10:53 AM 79.0 °F - 66.9 °F 66% 30.09 in 10.0 mi SE 13.8 mph - N/A   Scattered Clouds
11:53 AM 79.0 °F - 68.0 °F 69% 30.07 in 10.0 mi SSE 12.7 mph - N/A   Mostly Cloudy
12:53 PM 80.1 °F 82.7 °F 68.0 °F 67% 30.05 in 10.0 mi SE 10.4 mph - N/A   Mostly Cloudy
1:53 PM 79.0 °F - 68.0 °F 69% 30.03 in 10.0 mi SE 10.4 mph - N/A   Mostly Cloudy
2:53 PM 78.1 °F - 68.0 °F 71% 30.02 in 10.0 mi SSE 12.7 mph 20.7 mph N/A   Scattered Clouds
3:53 PM 77.0 °F - 68.0 °F 74% 30.03 in 10.0 mi SSE 9.2 mph 18.4 mph N/A   Scattered Clouds
4:53 PM 77.0 °F - 66.9 °F 71% 30.04 in 10.0 mi SE 10.4 mph - N/A   Scattered Clouds
5:53 PM 75.9 °F - 68.0 °F 76% 30.04 in 10.0 mi SE 5.8 mph - N/A   Partly Cloudy
6:53 PM 75.0 °F - 66.9 °F 76% 30.06 in 10.0 mi SSE 5.8 mph - N/A   Partly Cloudy
7:53 PM 75.0 °F - 68.0 °F 79% 30.07 in 10.0 mi SE 5.8 mph - N/A   Scattered Clouds
8:32 PM 73.4 °F - 69.8 °F 88% 30.07 in 10.0 mi SE 4.6 mph - 0.01 in Rain Light Rain
8:35 PM 73.4 °F - 69.8 °F 88% 30.07 in 10.0 mi SE 4.6 mph - 0.01 in   Mostly Cloudy
8:53 PM 73.9 °F - 69.1 °F 85% 30.07 in 10.0 mi ESE 5.8 mph - 0.01 in   Scattered Clouds
9:53 PM 73.9 °F - 69.1 °F 85% 30.06 in 10.0 mi Calm Calm - N/A   Overcast
10:09 PM 73.4 °F - 69.8 °F 88% 30.06 in 9.0 mi SSW 3.5 mph - 0.01 in Rain Light Rain
10:25 PM 73.4 °F - 69.8 °F 88% 30.06 in 2.0 mi SSE 18.4 mph - 0.19 in Rain Heavy Rain
10:26 PM 73.4 °F - 69.8 °F 88% 30.06 in 1.0 mi SSE 18.4 mph - 0.19 in Rain Heavy Rain
10:31 PM 73.4 °F - 69.8 °F 88% 30.07 in 1.5 mi SE 6.9 mph 20.7 mph 0.25 in Rain Heavy Rain
10:34 PM 71.6 °F - 69.8 °F 94% 30.07 in 2.0 mi SE 9.2 mph - 0.27 in Rain Heavy Rain
10:37 PM 71.6 °F - 69.8 °F 94% 30.06 in 3.0 mi SE 9.2 mph - 0.27 in Rain Rain
10:47 PM 71.6 °F - 69.8 °F 94% 30.06 in 10.0 mi SSE 4.6 mph - 0.27 in Rain Light Rain
10:53 PM 71.1 °F - 69.1 °F 93% 30.06 in 9.0 mi SSE 8.1 mph - 0.27 in Rain Light Rain
11:53 PM 72.0 °F - 69.1 °F 91% 30.05 in 9.0 mi SE 5.8 mph - 0.01 in Rain Light Rain